Previsão horária em Jurzyn

Hoje, 24 Junho, Quinta-feira

Tempo Temperatura Precipitação Vento Pressão Humidade
00:00 +18°C° 0 mm 1 m/s 751 mmHg 81%
01:00 +17°C° 0 mm 2 m/s 751 mmHg 81%
02:00 +17°C° 0 mm 2 m/s 750 mmHg 79%
03:00 +17°C° 0 mm 2 m/s 750 mmHg 77%
04:00 +17°C° 0 mm 3 m/s 750 mmHg 75%
05:00 +16°C° 0.6 mm 3 m/s 750 mmHg 80%
06:00 +16°C° 0.6 mm 3 m/s 749 mmHg 84%
07:00 +14°C° 0.6 mm 3 m/s 749 mmHg 88%
08:00 +14°C° 3.4 mm 3 m/s 749 mmHg 91%
09:00 +14°C° 3.4 mm 3 m/s 749 mmHg 94%
10:00 +13°C° 3.4 mm 3 m/s 749 mmHg 97%
11:00 +13°C° 1 mm 3 m/s 749 mmHg 97%
12:00 +14°C° 1 mm 3 m/s 750 mmHg 96%
13:00 +14°C° 1 mm 3 m/s 750 mmHg 96%
14:00 +14°C° 0.2 mm 3 m/s 750 mmHg 96%
15:00 +14°C° 0.2 mm 3 m/s 750 mmHg 96%
16:00 +14°C° 0.2 mm 3 m/s 750 mmHg 96%
17:00 +16°C° 0 mm 2 m/s 749 mmHg 95%
18:00 +16°C° 0 mm 2 m/s 749 mmHg 94%
19:00 +16°C° 0 mm 2 m/s 749 mmHg 93%
20:00 +16°C° 0 mm 2 m/s 749 mmHg 94%
21:00 +15°C° 0 mm 2 m/s 749 mmHg 96%
22:00 +14°C° 0 mm 1 m/s 749 mmHg 97%
23:00 +14°C° 0 mm 1 m/s 749 mmHg 97%

Amanhã, 25 Junho, Sexta-feira

Tempo Temperatura Precipitação Vento Pressão Humidade
00:00 +14°C° 0 mm 1 m/s 749 mmHg 97%
01:00 +14°C° 0 mm 1 m/s 749 mmHg 97%
02:00 +14°C° 0 mm 1 m/s 749 mmHg 97%
03:00 +14°C° 0 mm 1 m/s 749 mmHg 98%
04:00 +13°C° 0 mm 1 m/s 749 mmHg 98%
05:00 +14°C° 0 mm 1 m/s 749 mmHg 95%
06:00 +15°C° 0 mm 1 m/s 750 mmHg 92%
07:00 +16°C° 0 mm 1 m/s 750 mmHg 90%
08:00 +18°C° 0.1 mm 1 m/s 750 mmHg 87%
09:00 +19°C° 0.1 mm 1 m/s 750 mmHg 84%
10:00 +19°C° 0.1 mm 1 m/s 750 mmHg 80%
11:00 +20°C° 0.2 mm 1 m/s 750 mmHg 79%
12:00 +20°C° 0.2 mm 1 m/s 750 mmHg 78%
13:00 +20°C° 0.2 mm 1 m/s 750 mmHg 77%
14:00 +20°C° 0 mm 1 m/s 750 mmHg 79%
15:00 +20°C° 0 mm 1 m/s 750 mmHg 81%
16:00 +20°C° 0 mm 1 m/s 750 mmHg 82%
17:00 +20°C° 0 mm 1 m/s 750 mmHg 82%
18:00 +20°C° 0 mm 1 m/s 750 mmHg 83%
19:00 +18°C° 0 mm 0 m/s 749 mmHg 83%
20:00 +19°C° 0 mm 1 m/s 750 mmHg 86%
21:00 +18°C° 0 mm 1 m/s 750 mmHg 89%
22:00 +15°C° 0 mm 1 m/s 750 mmHg 92%
23:00 +15°C° 0 mm 1 m/s 750 mmHg 92%

Depois de amanhã, 26 Junho, Sábado

Tempo Temperatura Precipitação Vento Pressão Humidade
00:00 +14°C° 0 mm 0 m/s 750 mmHg 92%
01:00 +14°C° 0 mm 0 m/s 750 mmHg 92%
02:00 +13°C° 0 mm 0 m/s 750 mmHg 93%
03:00 +14°C° 0 mm 1 m/s 751 mmHg 93%
04:00 +14°C° 0 mm 1 m/s 751 mmHg 94%
05:00 +16°C° 0 mm 1 m/s 751 mmHg 88%
06:00 +18°C° 0 mm 1 m/s 751 mmHg 83%
07:00 +18°C° 0 mm 0 m/s 751 mmHg 77%
08:00 +21°C° 0.2 mm 1 m/s 751 mmHg 72%
09:00 +22°C° 0.2 mm 1 m/s 751 mmHg 67%
10:00 +23°C° 0.2 mm 1 m/s 751 mmHg 63%
11:00 +24°C° 0.5 mm 1 m/s 751 mmHg 62%
12:00 +24°C° 0.5 mm 1 m/s 751 mmHg 62%
13:00 +24°C° 0.5 mm 1 m/s 751 mmHg 62%
14:00 +24°C° 0.3 mm 1 m/s 751 mmHg 60%
15:00 +25°C° 0.3 mm 1 m/s 751 mmHg 59%
16:00 +25°C° 0.3 mm 1 m/s 751 mmHg 57%
17:00 +24°C° 0.3 mm 1 m/s 751 mmHg 64%
18:00 +23°C° 0.3 mm 1 m/s 750 mmHg 70%
19:00 +22°C° 0.3 mm 1 m/s 750 mmHg 77%
20:00 +21°C° 0.1 mm 1 m/s 751 mmHg 80%
21:00 +20°C° 0.1 mm 1 m/s 751 mmHg 84%
22:00 +18°C° 0.1 mm 1 m/s 751 mmHg 87%
23:00 +18°C° 0 mm 1 m/s 751 mmHg 88%

27 Junho, Domingo

Tempo Temperatura Precipitação Vento Pressão Humidade
00:00 +18°C° 0 mm 1 m/s 751 mmHg 89%
01:00 +16°C° 0 mm 1 m/s 751 mmHg 91%
02:00 +16°C° 0 mm 1 m/s 751 mmHg 91%
03:00 +15°C° 0 mm 0 m/s 750 mmHg 91%
04:00 +14°C° 0 mm 0 m/s 750 mmHg 92%
05:00 +18°C° 0 mm 1 m/s 751 mmHg 87%
06:00 +19°C° 0 mm 1 m/s 751 mmHg 82%
07:00 +21°C° 0 mm 1 m/s 751 mmHg 78%
08:00 +23°C° 0 mm 1 m/s 751 mmHg 70%
09:00 +24°C° 0 mm 1 m/s 750 mmHg 63%
10:00 +26°C° 0 mm 1 m/s 750 mmHg 55%
11:00 +27°C° 0.1 mm 1 m/s 750 mmHg 51%
12:00 +28°C° 0.1 mm 1 m/s 750 mmHg 48%
13:00 +29°C° 0.1 mm 1 m/s 750 mmHg 44%
14:00 +28°C° 0 mm 2 m/s 749 mmHg 49%
15:00 +27°C° 0 mm 2 m/s 749 mmHg 54%
16:00 +26°C° 0 mm 3 m/s 749 mmHg 58%
17:00 +25°C° 0 mm 2 m/s 749 mmHg 62%
18:00 +25°C° 0 mm 2 m/s 749 mmHg 66%
19:00 +24°C° 0 mm 2 m/s 749 mmHg 70%
20:00 +23°C° 0 mm 2 m/s 749 mmHg 73%
21:00 +21°C° 0 mm 2 m/s 749 mmHg 77%
22:00 +20°C° 0 mm 2 m/s 749 mmHg 80%
23:00 +19°C° 0 mm 2 m/s 749 mmHg 82%

28 Junho, Segunda-feira

Tempo Temperatura Precipitação Vento Pressão Humidade
00:00 +19°C° 0 mm 2 m/s 749 mmHg 83%
01:00 +18°C° 0 mm 2 m/s 749 mmHg 85%
02:00 +18°C° 0 mm 2 m/s 749 mmHg 86%
03:00 +18°C° 0 mm 2 m/s 749 mmHg 87%
04:00 +17°C° 0 mm 2 m/s 749 mmHg 88%
05:00 +19°C° 0 mm 2 m/s 749 mmHg 81%
06:00 +21°C° 0 mm 2 m/s 750 mmHg 74%
07:00 +23°C° 0 mm 2 m/s 750 mmHg 68%
08:00 +25°C° 0 mm 2 m/s 750 mmHg 62%
09:00 +27°C° 0 mm 2 m/s 750 mmHg 56%
10:00 +28°C° 0 mm 2 m/s 750 mmHg 50%
11:00 +29°C° 0 mm 2 m/s 750 mmHg 46%
12:00 +30°C° 0 mm 1 m/s 750 mmHg 42%
13:00 +31°C° 0 mm 1 m/s 749 mmHg 38%
14:00 +31°C° 0 mm 1 m/s 749 mmHg 37%
15:00 +32°C° 0 mm 1 m/s 749 mmHg 36%
16:00 +32°C° 0 mm 2 m/s 749 mmHg 35%
17:00 +30°C° 0 mm 2 m/s 749 mmHg 42%
18:00 +29°C° 0 mm 2 m/s 749 mmHg 49%
19:00 +28°C° 0 mm 2 m/s 749 mmHg 56%
20:00 +26°C° 0 mm 2 m/s 749 mmHg 62%
21:00 +24°C° 0 mm 2 m/s 749 mmHg 68%
22:00 +23°C° 0 mm 2 m/s 749 mmHg 74%
23:00 +21°C° 0 mm 2 m/s 749 mmHg 75%

29 Junho, Terça-feira

Tempo Temperatura Precipitação Vento Pressão Humidade
00:00 +21°C° 0 mm 2 m/s 749 mmHg 76%
01:00 +20°C° 0 mm 2 m/s 749 mmHg 76%
02:00 +20°C° 0 mm 2 m/s 749 mmHg 77%
03:00 +20°C° 0 mm 2 m/s 749 mmHg 77%
04:00 +19°C° 0 mm 2 m/s 749 mmHg 78%
05:00 +21°C° 0 mm 2 m/s 749 mmHg 72%
06:00 +24°C° 0 mm 2 m/s 749 mmHg 67%
07:00 +26°C° 0 mm 2 m/s 749 mmHg 61%
08:00 +28°C° 0 mm 2 m/s 749 mmHg 56%
09:00 +29°C° 0 mm 3 m/s 749 mmHg 51%
10:00 +31°C° 0 mm 3 m/s 749 mmHg 45%
11:00 +33°C° 0 mm 3 m/s 749 mmHg 43%
12:00 +34°C° 0 mm 2 m/s 749 mmHg 41%
13:00 +34°C° 0 mm 2 m/s 749 mmHg 39%
14:00 +34°C° 0 mm 2 m/s 749 mmHg 42%
15:00 +32°C° 0 mm 2 m/s 748 mmHg 46%
16:00 +32°C° 0 mm 2 m/s 748 mmHg 49%
17:00 +29°C° 1.1 mm 2 m/s 748 mmHg 58%
18:00 +26°C° 1.1 mm 3 m/s 748 mmHg 67%
19:00 +22°C° 1.1 mm 3 m/s 748 mmHg 76%
20:00 +21°C° 0.3 mm 2 m/s 749 mmHg 76%
21:00 +21°C° 0.3 mm 2 m/s 749 mmHg 77%
22:00 +22°C° 0.3 mm 1 m/s 749 mmHg 78%
23:00 +22°C° 0.9 mm 1 m/s 749 mmHg 82%
Mostrar mais

Necessitamos do seu Consentimento

A Meteoprog e os seus Fornecedores de Serviços podem armazenar e aceder a dados pessoais como cookies, identificadores do dispositivo ou outras tecnologias semelhantes existentes no seu dispositivo e processar estes dados para personalizar conteúdos e anúncios, assim como funcionalidades nas redes sociais e análise de tráfego.

  • Armazenar e/ou aceder a informações no seu dispositivo

    Os cookies, identificadores do dispositivo ou outras informações podem ser armazenados ou acedidos no seu dispositivo, para os fins acima indicados.

  • Anúncios e conteúdos personalizados, medição de anúncios e conteúdos, dados sobre o público-alvo e desenvolvimento de produtos

    Os anúncios e os conteúdos podem ser personalizados com base num perfil. Podem ser adicionados dados adicionais para uma maior personalização dos anúncios e dos conteúdos. A eficácia dos anúncios e dos conteúdos pode ser medida. Podem ser obtidas informações sobre o público que visualizou os anúncios e os conteúdos. Estes dados podem ser usados para desenvolver ou melhorar sistemas, softwares ou a experiência do utilizador.

Ao clicar em "Eu concordo”, permitirá o uso de cookies, identificadores do dispositivo e web beacons mencionados ou outras tecnologias semelhantes. As configurações do navegador do seu dispositivo podem ser alteradas.

Para certos fins, podem ser invocados interesses legítimos ao invés de consentimento. Pode ler mais informação sobre este assunto na nossa Política de Privacidade e Cookies.